FENGYUN 1C DEB, 29962

Orbit data source: Space-Track

FENGYUN 1C DEB, 29962 is space debris in SSO originally from a launch on Mon, 10 May 1999 UTC launched from the Taiyaun Space Center, China (TSC). Fengyun 1C debris stems from the Chinese weather satellite Fengyun-1C, which was intentionally destroyed by a Chinese anti-satellite missile in 2007. This event dramatically increased the amount of space debris, with thousands of trackable fragments posing hazards to satellites and human spaceflight. The Fengyun 1C debris cloud has become a focal point in discussions about space sustainability and the need for international regulations to prevent the creation of new debris.

Loading next visibility...
Identifier
29962, 1999-025KL
Orbit
SSO
Country
Flag of CNCN / PRC
Related business
Manufacturer
Unknown
Mission
Spacecraft
Bus & Motor
Unknown
Mass
Unknown
Launch date (UTC)
1999-05-10 (27 years ago)
Launch vehicle
Unknown
Launch site
Taiyaun Space Center, China (TSC)
Object type
Payload
Rocket body
Debris
Shape & HBR
Unknown shape, 0.2 m
Radar Cross Section
Medium (>0.1 m² and <1 m²)

Expand to show TLE details & history
Last TLE update: 17 hours ago

TLE from 17 hours ago
0 FENGYUN 1C DEB
1 29962U 99025KL  26255.28852205  .00000153  00000-0  10986-3 0  9991
2 29962  98.7691 260.3742 0110271 170.4874 202.6085 14.07316383  8453
Epoch: 2026-09-12T06:55Z
TLE epoch observation values (Epoch: 2026-09-12T06:55:28.305Z)
Latitude
12.42681°
Longitude
163.26881°
Altitude
944.621 km
Speed
7.343 km/s
True Right ascension
17h 13m 44s
True Declination
12° 21' 24"
Sunlit
Object was in daylight at epoch
Visualization orbit readout
Latitude
Unknown
Longitude
Unknown
Altitude
Unknown
Speed
Unknown
Apparent Right ascension
Unknown
Apparent Declination
Unknown
Sunlit
N/A
Visualization observer readout
Local Sidereal Time
16:51:55
Azimuth
Unknown
Elevation
Unknown
Doppler factor
Unknown
Orbital elements
Apogee altitude
945.627 km
Perigee altitude
785.868 km
Semi-major axis
7,243.885 km
Eccentricity
0.01103
Inclination
98.7691°
RAAN
260.3742°
Arg. of periapsis
170.4874°
True anomaly
202.12884°
Mean anomaly
202.6085°
Eccentric anomaly
202.36806°
Mean motion
3.52035 °/min
Orbital period
102.26 mins
BSTAR
0.00010986
Loading maneuver chart data...
Computing Atmospheric mass density...

Documentation

Showing up to 5 results
|